Location: Andiroba
(19.8650°S, 43.9258°W)
Time: 01:34:35
(UTC+00:00)

SL-4 R/B - Pass Details

Date: 15 June 2024
Orbit: 411 x 596 km, 51.6° (Epoch: 24 July)

Event Time Altitude Azimuth Distance (km) Brightness Sun altitude
Exits shadow 07:06:27 22° 107° (ESE) 1,302 4.4 -32.2°
Drops below altitude 10° 07:08:13 10° 122° (ESE) 1,890 5.2 -31.8°
Sets 07:10:33 0° 130° (SE) 2,765 6.0 -31.3°
